ONEWEB-0324 (49193 NORAD) Tracking and Keplerian Element Data

This shows tracking and keplerian element data for the satellite.

Feedback or suggestion? Click here.




ElementValue
Catalog49193
NameONEWEB-0324
Epoch Orbit776
Epoch Day300.83334491
Epoch Year2021
RAAN314.0366
Inclination87.5958
Eccentricity0.0021755
Argument of Perigee148.5337
Mean Anonmoly285.6437
Mean Motion14.53324429
Decay Rate-0.01303069
L11 49193U 21083H 21300.83334491 -.01303069 00000-0 -33712+0 0 9990
L22 49193 87.5958 314.0366 0021755 148.5337 285.6437 14.53324429 7766

Live tracking and technical data element details for ONEWEB-0324 (NORAD 49193). ONEWEB-0324 can be tracked NOW for your location showing map with azimuth and elevation plus other details from your city location.

Track the satellite on the map from your city or location and see movement details for azimuth, elevation, latitude, longitude, range, height, and movement on the map or in text.







IsCatalogInMostPopularTable: catalog: 49193, numindb: 9
Update: records affected: 1



GetName: 49193 ONEWEB-0324

Hit Count: updated at: Thu, 28 Oct 2021 12:03:15 GMT